date,time,SUV Intensity [MED/Hr],UV Index,Daily total [MED],Since Last [MED]
18/07/2022,00:10:31,0.000,0.0,0.0,0.0
18/07/2022,00:11:32,0.000,0.0,0.0,0.0
18/07/2022,00:12:40,0.000,0.0,0.0,0.0
18/07/2022,00:13:32,0.001,0.0,0.0,0.0
18/07/2022,00:14:31,0.000,0.0,0.0,0.0
18/07/2022,00:15:32,-0.000,0.0,0.0,0.0
18/07/2022,00:16:32,0.000,0.0,0.0,0.0
18/07/2022,00:17:32,0.000,0.0,0.0,0.0
18/07/2022,00:18:32,-0.001,0.0,0.0,0.0
18/07/2022,00:19:32,-0.001,0.0,0.0,0.0
18/07/2022,00:20:32,0.000,0.0,0.0,0.0
18/07/2022,00:21:32,0.001,0.0,0.0,0.0
18/07/2022,00:22:31,0.000,0.0,0.0,0.0
18/07/2022,00:23:32,0.000,0.0,0.0,0.0
18/07/2022,00:24:31,0.000,0.0,0.0,0.0
18/07/2022,00:25:31,0.000,0.0,0.0,0.0
18/07/2022,00:26:32,0.000,0.0,0.0,0.0
18/07/2022,00:27:32,0.000,0.0,0.0,0.0
18/07/2022,00:28:31,0.000,0.0,0.0,0.0
18/07/2022,00:29:32,0.000,0.0,0.0,0.0
18/07/2022,00:30:31,0.001,0.0,0.0,0.0
18/07/2022,00:31:32,-0.000,0.0,0.0,0.0
18/07/2022,00:32:32,-0.000,0.0,0.0,0.0
18/07/2022,00:33:32,-0.000,0.0,0.0,0.0
18/07/2022,00:34:32,0.000,0.0,0.0,0.0
18/07/2022,00:35:40,-0.000,0.0,0.0,0.0
18/07/2022,00:36:32,0.001,0.0,0.0,0.0
18/07/2022,00:37:31,0.000,0.0,0.0,0.0
18/07/2022,00:38:40,0.001,0.0,0.0,0.0
18/07/2022,00:39:32,0.000,0.0,0.0,0.0
18/07/2022,00:40:31,0.000,0.0,0.0,0.0
18/07/2022,00:41:32,0.001,0.0,0.0,0.0
18/07/2022,00:42:34,-0.000,0.0,0.0,0.0
18/07/2022,00:43:32,-0.000,0.0,0.0,0.0
18/07/2022,00:44:32,0.000,0.0,0.0,0.0
18/07/2022,00:45:31,-0.000,0.0,0.0,0.0
18/07/2022,00:46:32,0.000,0.0,0.0,0.0
18/07/2022,00:47:32,0.000,0.0,0.0,0.0
18/07/2022,00:48:32,0.000,0.0,0.0,0.0
18/07/2022,00:49:31,0.000,0.0,0.0,0.0
18/07/2022,00:50:32,0.001,0.0,0.0,0.0
18/07/2022,00:51:31,0.000,0.0,0.0,0.0
18/07/2022,00:52:31,0.001,0.0,0.0,0.0
18/07/2022,00:53:32,0.001,0.0,0.0,0.0
18/07/2022,00:54:31,0.000,0.0,0.0,0.0
18/07/2022,00:55:32,0.000,0.0,0.0,0.0
18/07/2022,00:56:32,0.001,0.0,0.0,0.0
18/07/2022,00:57:31,0.000,0.0,0.0,0.0
18/07/2022,00:58:31,-0.001,0.0,0.0,0.0
18/07/2022,00:59:32,0.000,0.0,0.0,0.0
18/07/2022,01:00:32,0.000,0.0,0.0,0.0
18/07/2022,01:01:31,0.001,0.0,0.0,0.0
18/07/2022,01:02:31,0.000,0.0,0.0,0.0
18/07/2022,01:03:32,0.001,0.0,0.0,0.0
18/07/2022,01:04:40,-0.001,0.0,0.0,0.0
18/07/2022,01:05:32,0.000,0.0,0.0,0.0
18/07/2022,01:06:32,0.000,0.0,0.0,0.0
18/07/2022,01:07:32,-0.000,0.0,0.0,0.0
18/07/2022,01:08:32,0.000,0.0,0.0,0.0
18/07/2022,01:09:32,0.000,0.0,0.0,0.0
18/07/2022,01:10:32,0.000,0.0,0.0,0.0
18/07/2022,01:11:31,0.002,0.0,0.0,0.0
18/07/2022,01:12:32,-0.000,0.0,0.0,0.0
18/07/2022,01:13:31,0.000,0.0,0.0,0.0
18/07/2022,01:14:32,0.000,0.0,0.0,0.0
18/07/2022,01:15:32,0.001,0.0,0.0,0.0
18/07/2022,01:16:32,0.002,0.0,0.0,0.0
18/07/2022,01:17:32,0.001,0.0,0.0,0.0
18/07/2022,01:18:32,0.000,0.0,0.0,0.0
18/07/2022,01:19:32,0.001,0.0,0.0,0.0
18/07/2022,01:20:31,0.002,0.0,0.0,0.0
18/07/2022,01:21:23,-0.000,0.0,0.0,0.0
18/07/2022,01:22:35,0.001,0.0,0.0,0.0
18/07/2022,01:23:32,0.001,0.0,0.0,0.0
18/07/2022,01:24:32,0.000,0.0,0.0,0.0
18/07/2022,01:25:32,0.002,0.0,0.0,0.0
18/07/2022,01:26:32,-0.000,0.0,0.0,0.0
18/07/2022,01:27:31,0.000,0.0,0.0,0.0
18/07/2022,01:28:31,0.001,0.0,0.0,0.0
18/07/2022,01:29:32,0.000,0.0,0.0,0.0
18/07/2022,01:30:42,-0.000,0.0,0.0,0.0
18/07/2022,01:32:32,0.001,0.0,0.0,0.0
18/07/2022,01:33:32,0.001,0.0,0.0,0.0
18/07/2022,01:34:31,0.001,0.0,0.0,0.0
18/07/2022,01:35:32,0.001,0.0,0.0,0.0
18/07/2022,01:36:32,0.001,0.0,0.0,0.0
18/07/2022,01:37:32,0.001,0.0,0.0,0.0
18/07/2022,01:38:31,0.001,0.0,0.0,0.0
18/07/2022,01:39:32,0.001,0.0,0.0,0.0
18/07/2022,01:40:32,0.001,0.0,0.0,0.0
18/07/2022,01:41:31,0.001,0.0,0.0,0.0
18/07/2022,01:42:31,0.002,0.0,0.0,0.0
18/07/2022,01:43:32,0.002,0.0,0.0,0.0
18/07/2022,01:44:32,0.002,0.0,0.0,0.0
18/07/2022,01:45:32,0.001,0.0,0.0,0.0
18/07/2022,01:46:32,0.002,0.0,0.0,0.0
18/07/2022,01:47:31,0.002,0.0,0.0,0.0
18/07/2022,01:48:32,0.001,0.0,0.0,0.0
18/07/2022,01:49:32,0.002,0.0,0.0,0.0
18/07/2022,01:50:31,0.001,0.0,0.0,0.0
18/07/2022,01:51:32,0.001,0.0,0.0,0.0
18/07/2022,01:52:31,0.002,0.0,0.0,0.0
18/07/2022,01:53:32,0.001,0.0,0.0,0.0
18/07/2022,01:54:32,0.002,0.0,0.0,0.0
18/07/2022,01:55:31,0.001,0.0,0.0,0.0
18/07/2022,01:56:40,0.001,0.0,0.0,0.0
18/07/2022,01:57:31,0.001,0.0,0.0,0.0
18/07/2022,01:58:32,0.000,0.0,0.0,0.0
18/07/2022,01:59:40,0.002,0.0,0.0,0.0
18/07/2022,02:00:32,0.002,0.0,0.0,0.0
18/07/2022,02:01:32,0.002,0.0,0.0,0.0
18/07/2022,02:02:32,0.002,0.0,0.0,0.0
18/07/2022,02:03:32,0.001,0.0,0.0,0.0
18/07/2022,02:04:32,0.001,0.0,0.0,0.0
18/07/2022,02:05:32,0.001,0.0,0.0,0.0
18/07/2022,02:06:31,0.001,0.0,0.0,0.0
18/07/2022,02:07:32,0.002,0.0,0.0,0.0
18/07/2022,02:08:32,0.001,0.0,0.0,0.0
18/07/2022,02:09:31,0.001,0.0,0.0,0.0
18/07/2022,02:10:32,0.002,0.0,0.0,0.0
18/07/2022,02:11:32,0.001,0.0,0.0,0.0
18/07/2022,02:12:31,0.001,0.0,0.0,0.0
18/07/2022,02:13:32,0.001,0.0,0.0,0.0
18/07/2022,02:14:32,0.001,0.0,0.0,0.0
18/07/2022,02:15:32,0.001,0.0,0.0,0.0
18/07/2022,02:16:32,0.001,0.0,0.0,0.0
18/07/2022,02:17:32,0.001,0.0,0.0,0.0
18/07/2022,02:18:32,0.001,0.0,0.0,0.0
18/07/2022,02:19:41,0.001,0.0,0.0,0.0
18/07/2022,02:20:32,0.000,0.0,0.0,0.0
18/07/2022,02:21:32,0.001,0.0,0.0,0.0
18/07/2022,02:22:23,0.002,0.0,0.0,0.0
18/07/2022,02:23:33,0.001,0.0,0.0,0.0
18/07/2022,02:24:32,0.002,0.0,0.0,0.0
18/07/2022,02:25:32,0.001,0.0,0.0,0.0
18/07/2022,02:26:34,0.001,0.0,0.0,0.0
18/07/2022,02:27:32,0.001,0.0,0.0,0.0
18/07/2022,02:28:40,0.001,0.0,0.0,0.0
18/07/2022,02:29:32,0.002,0.0,0.0,0.0
18/07/2022,02:30:32,0.002,0.0,0.0,0.0
18/07/2022,02:31:32,0.001,0.0,0.0,0.0
18/07/2022,02:32:32,0.002,0.0,0.0,0.0
18/07/2022,02:33:40,0.001,0.0,0.0,0.0
18/07/2022,02:34:32,0.001,0.0,0.0,0.0
18/07/2022,02:35:32,0.001,0.0,0.0,0.0
18/07/2022,02:36:32,0.002,0.0,0.0,0.0
18/07/2022,02:37:32,0.001,0.0,0.0,0.0
18/07/2022,02:38:32,0.001,0.0,0.0,0.0
18/07/2022,02:39:33,0.002,0.0,0.0,0.0
18/07/2022,02:40:32,0.001,0.0,0.0,0.0
18/07/2022,02:41:32,0.002,0.0,0.0,0.0
18/07/2022,02:42:32,0.001,0.0,0.0,0.0
18/07/2022,02:43:32,0.001,0.0,0.0,0.0
18/07/2022,02:44:31,0.001,0.0,0.0,0.0
18/07/2022,02:45:32,0.001,0.0,0.0,0.0
18/07/2022,02:46:32,0.002,0.0,0.0,0.0
18/07/2022,02:47:32,0.001,0.0,0.0,0.0
18/07/2022,02:48:40,0.001,0.0,0.0,0.0
18/07/2022,02:49:32,0.001,0.0,0.0,0.0
18/07/2022,02:50:34,0.001,0.0,0.0,0.0
18/07/2022,02:51:32,0.001,0.0,0.0,0.0
18/07/2022,02:52:32,0.001,0.0,0.0,0.0
18/07/2022,02:53:32,0.002,0.0,0.0,0.0
18/07/2022,02:54:40,0.002,0.0,0.0,0.0
18/07/2022,02:56:33,0.002,0.0,0.0,0.0
18/07/2022,02:57:32,0.001,0.0,0.0,0.0
18/07/2022,02:58:32,0.002,0.0,0.0,0.0
18/07/2022,02:59:32,0.002,0.0,0.0,0.0
18/07/2022,03:00:32,0.002,0.0,0.0,0.0
18/07/2022,03:01:32,0.002,0.0,0.0,0.0
18/07/2022,03:02:32,0.002,0.0,0.0,0.0
18/07/2022,03:03:33,0.002,0.0,0.0,0.0
18/07/2022,03:04:26,0.002,0.0,0.0,0.0
18/07/2022,03:05:32,0.002,0.0,0.0,0.0
18/07/2022,03:06:32,0.002,0.0,0.0,0.0
18/07/2022,03:07:48,0.002,0.0,0.0,0.0
18/07/2022,03:09:41,0.002,0.0,0.0,0.0
18/07/2022,03:11:33,0.002,0.0,0.0,0.0
18/07/2022,03:12:32,0.002,0.0,0.0,0.0
18/07/2022,03:13:32,0.002,0.0,0.0,0.0
18/07/2022,03:14:32,0.002,0.0,0.0,0.0
18/07/2022,03:15:32,0.002,0.0,0.0,0.0
18/07/2022,03:16:32,0.002,0.0,0.0,0.0
18/07/2022,03:17:41,0.002,0.0,0.0,0.0
18/07/2022,03:18:32,0.002,0.0,0.0,0.0
18/07/2022,03:19:32,0.002,0.0,0.0,0.0
18/07/2022,03:20:32,0.002,0.0,0.0,0.0
18/07/2022,03:21:32,0.002,0.0,0.0,0.0
18/07/2022,03:22:31,0.002,0.0,0.0,0.0
18/07/2022,03:23:32,0.002,0.0,0.0,0.0
18/07/2022,03:24:32,0.002,0.0,0.0,0.0
18/07/2022,03:25:32,0.002,0.0,0.0,0.0
18/07/2022,03:26:48,0.002,0.0,0.0,0.0
18/07/2022,03:28:32,0.002,0.0,0.0,0.0
18/07/2022,03:29:40,0.002,0.0,0.0,0.0
18/07/2022,03:30:32,0.002,0.0,0.0,0.0
18/07/2022,03:31:32,0.002,0.0,0.0,0.0
18/07/2022,03:32:32,0.002,0.0,0.0,0.0
18/07/2022,03:33:31,0.002,0.0,0.0,0.0
18/07/2022,03:34:32,0.002,0.0,0.0,0.0
18/07/2022,03:35:32,0.002,0.0,0.0,0.0
18/07/2022,03:36:34,0.002,0.0,0.0,0.0
18/07/2022,03:37:32,0.002,0.0,0.0,0.0
18/07/2022,03:38:32,0.002,0.0,0.0,0.0
18/07/2022,03:39:32,0.002,0.0,0.0,0.0
18/07/2022,03:40:32,0.002,0.0,0.0,0.0
18/07/2022,03:41:32,0.002,0.0,0.0,0.0
18/07/2022,03:42:32,0.002,0.0,0.0,0.0
18/07/2022,03:43:32,0.002,0.0,0.0,0.0
18/07/2022,03:44:31,0.002,0.0,0.0,0.0
18/07/2022,03:45:32,0.000,0.0,0.0,0.0
18/07/2022,03:46:32,0.002,0.0,0.0,0.0
18/07/2022,03:47:32,0.002,0.0,0.0,0.0
18/07/2022,03:48:32,0.002,0.0,0.0,0.0
18/07/2022,03:49:32,0.002,0.0,0.0,0.0
18/07/2022,03:50:32,0.002,0.0,0.0,0.0
18/07/2022,03:51:32,0.002,0.0,0.0,0.0
18/07/2022,03:52:40,0.002,0.0,0.0,0.0
18/07/2022,03:53:32,0.002,0.0,0.0,0.0
18/07/2022,03:54:32,0.003,0.0,0.0,0.0
18/07/2022,03:55:41,0.002,0.0,0.0,0.0
18/07/2022,03:56:32,0.002,0.0,0.0,0.0
18/07/2022,03:57:32,0.002,0.0,0.0,0.0
18/07/2022,03:58:32,0.002,0.0,0.0,0.0
18/07/2022,03:59:32,0.002,0.0,0.0,0.0
18/07/2022,04:00:32,0.002,0.0,0.0,0.0
18/07/2022,04:01:32,0.002,0.0,0.0,0.0
18/07/2022,04:02:32,0.003,0.0,0.0,0.0
18/07/2022,04:03:32,0.003,0.0,0.0,0.0
18/07/2022,04:04:32,0.002,0.0,0.0,0.0
18/07/2022,04:05:32,0.003,0.0,0.0,0.0
18/07/2022,04:06:32,0.003,0.0,0.0,0.0
18/07/2022,04:07:32,0.002,0.0,0.0,0.0
18/07/2022,04:08:32,0.003,0.0,0.0,0.0
18/07/2022,04:09:32,0.004,0.0,0.0,0.0
18/07/2022,04:10:40,0.003,0.0,0.0,0.0
18/07/2022,04:11:32,0.004,0.0,0.0,0.0
18/07/2022,04:12:32,0.002,0.0,0.0,0.0
18/07/2022,04:13:32,0.003,0.0,0.0,0.0
18/07/2022,04:14:32,0.004,0.0,0.0,0.0
18/07/2022,04:15:32,0.004,0.0,0.0,0.0
18/07/2022,04:16:32,0.003,0.0,0.0,0.0
18/07/2022,04:17:32,0.004,0.0,0.0,0.0
18/07/2022,04:18:41,0.004,0.0,0.0,0.0
18/07/2022,04:19:33,0.004,0.0,0.0,0.0
18/07/2022,04:20:32,0.005,0.0,0.0,0.0
18/07/2022,04:21:32,0.005,0.0,0.0,0.0
18/07/2022,04:22:32,0.004,0.0,0.0,0.0
18/07/2022,04:23:32,0.005,0.0,0.0,0.0
18/07/2022,04:24:32,0.005,0.0,0.0,0.0
18/07/2022,04:25:32,0.005,0.0,0.0,0.0
18/07/2022,04:26:32,0.006,0.0,0.0,0.0
18/07/2022,04:27:32,0.005,0.0,0.0,0.0
18/07/2022,04:28:32,0.006,0.0,0.0,0.0
18/07/2022,04:29:33,0.006,0.0,0.0,0.0
18/07/2022,04:30:32,0.006,0.0,0.0,0.0
18/07/2022,04:31:32,0.006,0.0,0.0,0.0
18/07/2022,04:32:32,0.007,0.0,0.0,0.0
18/07/2022,04:33:41,0.007,0.0,0.0,0.0
18/07/2022,04:34:31,0.008,0.0,0.0,0.0
18/07/2022,04:35:32,0.008,0.0,0.001,0.001
18/07/2022,04:36:32,0.007,0.0,0.001,0.0
18/07/2022,04:37:32,0.008,0.0,0.001,0.0
18/07/2022,04:38:32,0.007,0.0,0.001,0.0
18/07/2022,04:39:32,0.009,0.0,0.001,0.0
18/07/2022,04:40:32,0.008,0.0,0.001,0.0
18/07/2022,04:41:32,0.009,0.0,0.001,0.0
18/07/2022,04:42:32,0.010,0.0,0.002,0.001
18/07/2022,04:43:32,0.009,0.0,0.002,0.0
18/07/2022,04:44:33,0.010,0.0,0.002,0.0
18/07/2022,04:45:32,0.009,0.0,0.002,0.0
18/07/2022,04:46:32,0.010,0.0,0.002,0.0
18/07/2022,04:47:32,0.011,0.0,0.002,0.0
18/07/2022,04:48:32,0.010,0.0,0.003,0.001
18/07/2022,04:49:32,0.011,0.0,0.003,0.0
18/07/2022,04:50:32,0.011,0.0,0.003,0.0
18/07/2022,04:51:32,0.013,0.0,0.003,0.0
18/07/2022,04:52:32,0.012,0.0,0.003,0.0
18/07/2022,04:53:32,0.012,0.0,0.004,0.001
18/07/2022,04:54:32,0.012,0.0,0.004,0.0
18/07/2022,04:55:32,0.014,0.0,0.004,0.0
18/07/2022,04:56:33,0.014,0.0,0.004,0.0
18/07/2022,04:57:32,0.014,0.0,0.004,0.0
18/07/2022,04:58:32,0.016,0.0,0.005,0.001
18/07/2022,04:59:40,0.016,0.0,0.005,0.0
18/07/2022,05:01:33,0.017,0.0,0.005,0.0
18/07/2022,05:02:41,0.017,0.0,0.006,0.001
18/07/2022,05:03:32,0.018,0.0,0.006,0.0
18/07/2022,05:04:32,0.017,0.0,0.006,0.0
18/07/2022,05:05:32,0.019,0.0,0.007,0.001
18/07/2022,05:06:33,0.019,0.0,0.007,0.0
18/07/2022,05:07:32,0.020,0.0,0.007,0.0
18/07/2022,05:08:33,0.021,0.0,0.008,0.001
18/07/2022,05:09:32,0.021,0.0,0.008,0.0
18/07/2022,05:10:32,0.022,0.0,0.008,0.0
18/07/2022,05:11:32,0.023,0.0,0.009,0.001
18/07/2022,05:12:32,0.023,0.0,0.009,0.0
18/07/2022,05:13:32,0.023,0.0,0.009,0.0
18/07/2022,05:14:32,0.024,0.0,0.01,0.001
18/07/2022,05:15:33,0.025,0.0,0.01,0.0
18/07/2022,05:16:32,0.025,0.0,0.011,0.001
18/07/2022,05:17:41,0.025,0.0,0.011,0.0
18/07/2022,05:18:32,0.027,0.0,0.012,0.001
18/07/2022,05:19:32,0.028,0.0,0.012,0.0
18/07/2022,05:20:41,0.029,0.0,0.013,0.001
18/07/2022,05:21:32,0.029,0.0,0.013,0.0
18/07/2022,05:22:32,0.030,0.0,0.013,0.0
18/07/2022,05:23:32,0.031,0.0,0.014,0.001
18/07/2022,05:24:32,0.032,0.0,0.014,0.0
18/07/2022,05:25:32,0.032,0.0,0.015,0.001
18/07/2022,05:26:32,0.034,0.0,0.016,0.001
18/07/2022,05:27:32,0.034,0.0,0.016,0.0
18/07/2022,05:28:32,0.035,0.0,0.017,0.001
18/07/2022,05:29:33,0.037,0.0,0.017,0.0
18/07/2022,05:30:32,0.037,0.0,0.018,0.001
18/07/2022,05:31:32,0.038,0.0,0.019,0.001
18/07/2022,05:32:33,0.039,0.0,0.019,0.0
18/07/2022,05:33:32,0.040,0.0,0.02,0.001
18/07/2022,05:34:32,0.041,0.0,0.021,0.001
18/07/2022,05:35:32,0.043,0.0,0.021,0.0
18/07/2022,05:36:32,0.044,0.0,0.022,0.001
18/07/2022,05:37:32,0.045,0.0,0.023,0.001
18/07/2022,05:38:40,0.046,0.0,0.024,0.001
18/07/2022,05:40:33,0.048,0.0,0.025,0.001
18/07/2022,05:41:32,0.049,0.0,0.026,0.001
18/07/2022,05:42:32,0.051,0.0,0.027,0.001
18/07/2022,05:43:41,0.052,0.0,0.028,0.001
18/07/2022,05:44:33,0.053,0.0,0.028,0.0
18/07/2022,05:45:32,0.054,0.0,0.029,0.001
18/07/2022,05:46:32,0.055,0.0,0.03,0.001
18/07/2022,05:47:33,0.058,0.0,0.031,0.001
18/07/2022,05:48:32,0.058,0.0,0.032,0.001
18/07/2022,05:49:41,0.060,0.0,0.033,0.001
18/07/2022,05:50:32,0.062,0.0,0.034,0.001
18/07/2022,05:51:33,0.061,0.0,0.035,0.001
18/07/2022,05:52:32,0.064,0.0,0.036,0.001
18/07/2022,05:53:32,0.066,0.0,0.037,0.001
18/07/2022,05:54:32,0.067,0.0,0.038,0.001
18/07/2022,05:55:32,0.069,0.0,0.04,0.002
18/07/2022,05:56:32,0.071,0.0,0.041,0.001
18/07/2022,05:57:33,0.072,0.0,0.042,0.001
18/07/2022,05:58:32,0.073,0.0,0.043,0.001
18/07/2022,05:59:33,0.075,0.0,0.044,0.001
18/07/2022,06:00:32,0.076,0.0,0.046,0.002
18/07/2022,06:01:46,0.078,0.0,0.047,0.001
18/07/2022,06:03:33,0.080,0.0,0.05,0.003
18/07/2022,06:04:40,0.083,0.0,0.051,0.001
18/07/2022,06:05:32,0.085,0.0,0.052,0.001
18/07/2022,06:06:32,0.087,0.0,0.054,0.002
18/07/2022,06:07:41,0.090,0.0,0.055,0.001
18/07/2022,06:08:32,0.092,0.0,0.057,0.002
18/07/2022,06:09:32,0.094,0.0,0.058,0.001
18/07/2022,06:10:33,0.095,0.0,0.06,0.002
18/07/2022,06:11:32,0.099,0.0,0.061,0.001
18/07/2022,06:12:32,0.100,0.0,0.063,0.002
18/07/2022,06:13:33,0.103,0.0,0.065,0.002
18/07/2022,06:14:33,0.105,0.0,0.067,0.002
18/07/2022,06:15:32,0.107,0.0,0.068,0.001
18/07/2022,06:16:41,0.109,0.0,0.07,0.002
18/07/2022,06:17:32,0.110,0.0,0.072,0.002
18/07/2022,06:18:33,0.113,0.0,0.074,0.002
18/07/2022,06:19:34,0.116,0.0,0.076,0.002
18/07/2022,06:20:32,0.117,0.0,0.078,0.002
18/07/2022,06:21:33,0.121,0.0,0.08,0.002
18/07/2022,06:22:32,0.123,0.0,0.082,0.002
18/07/2022,06:23:32,0.126,0.0,0.084,0.002
18/07/2022,06:24:32,0.128,0.0,0.086,0.002
18/07/2022,06:25:33,0.132,0.0,0.088,0.002
18/07/2022,06:26:32,0.133,0.0,0.09,0.002
18/07/2022,06:27:23,0.135,0.0,0.092,0.002
18/07/2022,06:28:33,0.139,0.0,0.095,0.003
18/07/2022,06:29:33,0.142,0.0,0.097,0.002
18/07/2022,06:30:33,0.144,0.0,0.1,0.003
18/07/2022,06:31:32,0.146,0.0,0.102,0.002
18/07/2022,06:32:32,0.150,0.0,0.104,0.002
18/07/2022,06:33:32,0.153,0.0,0.107,0.003
18/07/2022,06:34:41,0.155,0.0,0.11,0.003
18/07/2022,06:36:33,0.161,0.0,0.115,0.005
18/07/2022,06:37:33,0.165,0.0,0.118,0.003
18/07/2022,06:38:32,0.167,0.0,0.12,0.002
18/07/2022,06:39:49,0.171,0.0,0.124,0.004
18/07/2022,06:41:33,0.177,0.0,0.129,0.005
18/07/2022,06:42:32,0.180,0.0,0.132,0.003
18/07/2022,06:43:33,0.184,0.0,0.135,0.003
18/07/2022,06:44:32,0.187,0.0,0.138,0.003
18/07/2022,06:45:32,0.190,0.0,0.141,0.003
18/07/2022,06:46:32,0.194,0.0,0.144,0.003
18/07/2022,06:47:32,0.197,0.0,0.148,0.004
18/07/2022,06:48:32,0.200,0.0,0.151,0.003
18/07/2022,06:49:33,0.204,0.0,0.154,0.003
18/07/2022,06:50:33,0.208,0.0,0.158,0.004
18/07/2022,06:51:32,0.212,0.0,0.161,0.003
18/07/2022,06:52:32,0.215,0.0,0.165,0.004
18/07/2022,06:53:32,0.218,1.0,0.168,0.003
18/07/2022,06:54:33,0.222,1.0,0.172,0.004
18/07/2022,06:55:32,0.227,1.0,0.176,0.004
18/07/2022,06:56:32,0.230,1.0,0.18,0.004
18/07/2022,06:57:33,0.234,1.0,0.183,0.003
18/07/2022,06:58:33,0.238,1.0,0.187,0.004
18/07/2022,06:59:33,0.242,1.0,0.191,0.004
18/07/2022,07:00:33,0.246,1.0,0.195,0.004
18/07/2022,07:01:33,0.249,1.0,0.2,0.005
18/07/2022,07:02:32,0.253,1.0,0.204,0.004
18/07/2022,07:03:41,0.258,1.0,0.209,0.005
18/07/2022,07:04:32,0.262,1.0,0.212,0.003
18/07/2022,07:05:33,0.267,1.0,0.217,0.005
18/07/2022,07:06:32,0.270,1.0,0.221,0.004
18/07/2022,07:07:32,0.275,1.0,0.226,0.005
18/07/2022,07:08:32,0.278,1.0,0.23,0.004
18/07/2022,07:09:32,0.283,1.0,0.235,0.005
18/07/2022,07:10:32,0.288,1.0,0.24,0.005
18/07/2022,07:11:33,0.292,1.0,0.245,0.005
18/07/2022,07:12:32,0.297,1.0,0.249,0.004
18/07/2022,07:13:33,0.302,1.0,0.254,0.005
18/07/2022,07:14:32,0.307,1.0,0.26,0.006
18/07/2022,07:15:32,0.311,1.0,0.265,0.005
18/07/2022,07:16:32,0.317,1.0,0.27,0.005
18/07/2022,07:17:32,0.320,1.0,0.275,0.005
18/07/2022,07:18:32,0.327,1.0,0.281,0.006
18/07/2022,07:19:41,0.331,1.0,0.287,0.006
18/07/2022,07:20:32,0.336,1.0,0.292,0.005
18/07/2022,07:21:33,0.341,1.0,0.297,0.005
18/07/2022,07:22:32,0.346,1.0,0.303,0.006
18/07/2022,07:23:32,0.350,1.0,0.309,0.006
18/07/2022,07:24:40,0.356,1.0,0.316,0.007
18/07/2022,07:25:33,0.360,1.0,0.321,0.005
18/07/2022,07:26:33,0.365,1.0,0.327,0.006
18/07/2022,07:27:32,0.372,1.0,0.333,0.006
18/07/2022,07:28:32,0.376,1.0,0.339,0.006
18/07/2022,07:29:32,0.383,1.0,0.345,0.006
18/07/2022,07:30:32,0.388,1.0,0.352,0.007
18/07/2022,07:31:33,0.393,1.0,0.358,0.006
18/07/2022,07:32:32,0.398,1.0,0.365,0.007
18/07/2022,07:33:33,0.404,1.0,0.372,0.007
18/07/2022,07:34:32,0.409,1.0,0.378,0.006
18/07/2022,07:35:32,0.415,1.0,0.385,0.007
18/07/2022,07:36:33,0.421,1.0,0.392,0.007
18/07/2022,07:37:32,0.426,1.0,0.399,0.007
18/07/2022,07:38:33,0.431,1.0,0.407,0.008
18/07/2022,07:39:40,0.439,1.0,0.415,0.008
18/07/2022,07:40:32,0.445,1.0,0.421,0.006
18/07/2022,07:41:33,0.450,1.0,0.429,0.008
18/07/2022,07:42:41,0.455,1.0,0.437,0.008
18/07/2022,07:43:32,0.462,1.0,0.444,0.007
18/07/2022,07:44:33,0.467,1.0,0.452,0.008
18/07/2022,07:45:41,0.475,1.0,0.46,0.008
18/07/2022,07:46:32,0.479,1.0,0.467,0.007
18/07/2022,07:47:33,0.487,1.0,0.475,0.008
18/07/2022,07:48:32,0.492,1.0,0.484,0.009
18/07/2022,07:49:32,0.498,1.0,0.492,0.008
18/07/2022,07:50:33,0.504,1.0,0.5,0.008
18/07/2022,07:51:32,0.511,1.0,0.509,0.009
18/07/2022,07:52:32,0.516,1.0,0.517,0.008
18/07/2022,07:53:33,0.524,1.0,0.526,0.009
18/07/2022,07:54:33,0.531,1.0,0.535,0.009
18/07/2022,07:55:32,0.537,1.0,0.544,0.009
18/07/2022,07:56:32,0.543,1.0,0.553,0.009
18/07/2022,07:57:32,0.551,1.0,0.562,0.009
18/07/2022,07:58:33,0.558,1.0,0.571,0.009
18/07/2022,07:59:32,0.565,1.0,0.58,0.009
18/07/2022,08:00:32,0.570,1.0,0.59,0.01
18/07/2022,08:01:33,0.579,1.0,0.599,0.009
18/07/2022,08:02:40,0.586,1.0,0.61,0.011
18/07/2022,08:03:32,0.593,1.0,0.619,0.009
18/07/2022,08:04:32,0.600,1.0,0.629,0.01
18/07/2022,08:05:32,0.607,1.0,0.639,0.01
18/07/2022,08:06:33,0.614,1.0,0.649,0.01
18/07/2022,08:07:32,0.621,1.0,0.659,0.01
18/07/2022,08:08:32,0.628,1.0,0.67,0.011
18/07/2022,08:09:32,0.636,1.0,0.68,0.01
18/07/2022,08:10:32,0.643,1.0,0.691,0.011
18/07/2022,08:11:33,0.651,1.0,0.702,0.011
18/07/2022,08:12:32,0.658,2.0,0.713,0.011
18/07/2022,08:13:33,0.662,2.0,0.724,0.011
18/07/2022,08:14:32,0.668,2.0,0.735,0.011
18/07/2022,08:15:32,0.676,2.0,0.746,0.011
18/07/2022,08:16:32,0.686,2.0,0.757,0.011
18/07/2022,08:17:33,0.693,2.0,0.769,0.012
18/07/2022,08:18:32,0.699,2.0,0.78,0.011
18/07/2022,08:19:33,0.707,2.0,0.792,0.012
18/07/2022,08:20:32,0.716,2.0,0.804,0.012
18/07/2022,08:21:33,0.721,2.0,0.816,0.012
18/07/2022,08:22:32,0.729,2.0,0.828,0.012
18/07/2022,08:23:40,0.738,2.0,0.842,0.014
18/07/2022,08:25:41,0.755,2.0,0.867,0.025
18/07/2022,08:26:33,0.762,2.0,0.878,0.011
18/07/2022,08:27:33,0.769,2.0,0.89,0.012
18/07/2022,08:28:33,0.775,2.0,0.903,0.013
18/07/2022,08:29:32,0.779,2.0,0.916,0.013
18/07/2022,08:30:32,0.791,2.0,0.929,0.013
18/07/2022,08:31:33,0.798,2.0,0.943,0.014
18/07/2022,08:32:32,0.807,2.0,0.956,0.013
18/07/2022,08:33:32,0.815,2.0,0.969,0.013
18/07/2022,08:34:33,0.822,2.0,0.983,0.014
18/07/2022,08:35:32,0.830,2.0,0.997,0.014
18/07/2022,08:36:32,0.839,2.0,1.011,0.014
18/07/2022,08:37:32,0.848,2.0,1.025,0.014
18/07/2022,08:38:32,0.854,2.0,1.039,0.014
18/07/2022,08:39:32,0.862,2.0,1.053,0.014
18/07/2022,08:40:32,0.872,2.0,1.068,0.015
18/07/2022,08:41:41,0.882,2.0,1.084,0.016
18/07/2022,08:42:33,0.890,2.0,1.097,0.013
18/07/2022,08:43:33,0.899,2.0,1.112,0.015
18/07/2022,08:44:32,0.906,2.0,1.127,0.015
18/07/2022,08:45:33,0.915,2.0,1.142,0.015
18/07/2022,08:46:33,0.924,2.0,1.158,0.016
18/07/2022,08:47:41,0.932,2.0,1.175,0.017
18/07/2022,08:48:32,0.936,2.0,1.189,0.014
18/07/2022,08:49:33,0.947,2.0,1.204,0.015
18/07/2022,08:50:32,0.955,2.0,1.22,0.016
18/07/2022,08:51:32,0.965,2.0,1.236,0.016
18/07/2022,08:52:41,0.974,2.0,1.255,0.019
18/07/2022,08:53:32,0.981,2.0,1.269,0.014
18/07/2022,08:54:33,0.990,2.0,1.285,0.016
18/07/2022,08:55:33,0.997,2.0,1.302,0.017
18/07/2022,08:56:32,1.003,2.0,1.318,0.016
18/07/2022,08:57:33,1.014,2.0,1.335,0.017
18/07/2022,08:58:33,1.024,2.0,1.352,0.017
18/07/2022,08:59:33,1.031,2.0,1.369,0.017
18/07/2022,09:00:32,1.039,2.0,1.386,0.017
18/07/2022,09:01:32,1.046,2.0,1.404,0.018
18/07/2022,09:02:33,1.053,2.0,1.421,0.017
18/07/2022,09:03:32,1.064,2.0,1.439,0.018
18/07/2022,09:04:33,1.073,2.0,1.457,0.018
18/07/2022,09:05:32,1.079,2.0,1.475,0.018
18/07/2022,09:06:32,1.089,3.0,1.493,0.018
18/07/2022,09:07:41,1.093,3.0,1.513,0.02
18/07/2022,09:08:32,1.105,3.0,1.529,0.016
18/07/2022,09:09:33,1.113,3.0,1.548,0.019
18/07/2022,09:10:41,1.126,3.0,1.569,0.021
18/07/2022,09:12:34,1.137,3.0,1.605,0.036
18/07/2022,09:13:41,1.149,3.0,1.626,0.021
18/07/2022,09:14:33,1.156,3.0,1.642,0.016
18/07/2022,09:15:33,1.167,3.0,1.662,0.02
18/07/2022,09:16:32,1.171,3.0,1.681,0.019
18/07/2022,09:17:32,1.185,3.0,1.701,0.02
18/07/2022,09:18:41,1.191,3.0,1.723,0.022
18/07/2022,09:19:32,1.200,3.0,1.74,0.017
18/07/2022,09:20:33,1.208,3.0,1.761,0.021
18/07/2022,09:21:32,1.217,3.0,1.781,0.02
18/07/2022,09:22:33,1.223,3.0,1.801,0.02
18/07/2022,09:23:32,1.234,3.0,1.822,0.021
18/07/2022,09:24:32,1.244,3.0,1.842,0.02
18/07/2022,09:25:33,1.254,3.0,1.863,0.021
18/07/2022,09:26:32,1.262,3.0,1.884,0.021
18/07/2022,09:27:32,1.270,3.0,1.905,0.021
18/07/2022,09:28:32,1.279,3.0,1.926,0.021
18/07/2022,09:29:33,1.283,3.0,1.948,0.022
18/07/2022,09:30:42,1.292,3.0,1.973,0.025
18/07/2022,09:31:32,1.300,3.0,1.991,0.018
18/07/2022,09:32:32,1.309,3.0,2.013,0.022
18/07/2022,09:33:41,1.318,3.0,2.038,0.025
18/07/2022,09:34:33,1.324,3.0,2.056,0.018
18/07/2022,09:35:33,1.336,3.0,2.079,0.023
18/07/2022,09:36:41,1.343,3.0,2.104,0.025
18/07/2022,09:37:31,1.348,3.0,2.123,0.019
18/07/2022,09:38:41,1.357,3.0,2.149,0.026
18/07/2022,09:39:33,1.366,3.0,2.169,0.02
18/07/2022,09:40:35,1.375,3.0,2.192,0.023
18/07/2022,09:41:32,1.383,3.0,2.214,0.022
18/07/2022,09:42:32,1.394,3.0,2.238,0.024
18/07/2022,09:43:32,1.402,3.0,2.261,0.023
18/07/2022,09:44:41,1.418,3.0,2.287,0.026
18/07/2022,09:45:32,1.424,3.0,2.308,0.021
18/07/2022,09:46:33,1.433,3.0,2.332,0.024
18/07/2022,09:47:41,1.445,3.0,2.36,0.028
18/07/2022,09:48:33,1.453,3.0,2.38,0.02
18/07/2022,09:49:33,1.460,3.0,2.404,0.024
18/07/2022,09:50:33,1.463,3.0,2.429,0.025
18/07/2022,09:51:32,1.473,3.0,2.453,0.024
18/07/2022,09:52:33,1.482,3.0,2.478,0.025
18/07/2022,09:53:32,1.485,3.0,2.502,0.024
18/07/2022,09:54:33,1.494,3.0,2.527,0.025
18/07/2022,09:55:33,1.505,3.0,2.552,0.025
18/07/2022,09:56:33,1.513,3.0,2.577,0.025
18/07/2022,09:57:33,1.514,3.0,2.603,0.026
18/07/2022,09:58:33,1.526,4.0,2.628,0.025
18/07/2022,09:59:32,1.532,4.0,2.653,0.025
18/07/2022,10:00:33,1.542,4.0,2.679,0.026
18/07/2022,10:01:32,1.552,4.0,2.705,0.026
18/07/2022,10:02:33,1.553,4.0,2.731,0.026
18/07/2022,10:03:32,1.570,4.0,2.757,0.026
18/07/2022,10:04:32,1.576,4.0,2.783,0.026
18/07/2022,10:05:33,1.580,4.0,2.809,0.026
18/07/2022,10:06:32,1.588,4.0,2.836,0.027
18/07/2022,10:07:33,1.597,4.0,2.862,0.026
18/07/2022,10:08:33,1.609,4.0,2.889,0.027
18/07/2022,10:09:32,1.619,4.0,2.916,0.027
18/07/2022,10:10:33,1.620,4.0,2.943,0.027
18/07/2022,10:11:33,1.629,4.0,2.97,0.027
18/07/2022,10:12:32,1.639,4.0,2.997,0.027
18/07/2022,10:13:34,1.651,4.0,3.026,0.029
18/07/2022,10:14:33,1.657,4.0,3.052,0.026
18/07/2022,10:15:33,1.667,4.0,3.08,0.028
18/07/2022,10:16:32,1.675,4.0,3.108,0.028
18/07/2022,10:17:33,1.679,4.0,3.136,0.028
18/07/2022,10:18:33,1.680,4.0,3.164,0.028